Tracking 29892 objects as of 21-Nov-2024
HD Live streaming from Space Station
objects crossing your sky now

SL-12 R/B(AUX MOTOR)

Track SL-12 R/B(AUX MOTOR) now!
10-day predictions


NORAD ID: 36407
Int'l Code: 2010-007H
Perigee: 616.2 km
Apogee: 18,815.3 km
Inclination: 65.2 °
Period: 338.4 minutes
Semi major axis: 16086 km
RCS: 0.5885 m2 (medium)
Launch date: March 1, 2010
Source: Commonwealth of Independent States (former USSR) (CIS)
Launch site: TYURATAM MISSILE AND SPACE COMPLEX (TTMTR)

Note: This is a ROCKET BODY
Your satellite tracking list
Your tracking list is empty




NASA's NSSDC Master Catalog

Two Line Element Set (TLE):
1 36407U 10007H   24325.35783010  .00000115  00000-0  79512-3 0  9995
2 36407  65.2439  22.1143 5656537 299.6545  15.9549  4.25499846227972
Source of the keplerian elements: AFSPC